Location: Palomar Mountain Lodge
(33.3110°N, 116.8495°W)
Time: 07:00:03
(UTC-07:00)

H-2A R/B - Pass Details

Date: 12 July 2018
Orbit: 734 x 837 km, 98.3° (Epoch: 22 July)

Event Time Altitude Azimuth Distance (km) Brightness Sun altitude
Exits shadow 21:10:09 19° 129° (SE) 1,888 3.4 -13.4°
Maximum altitude 21:13:32 39° 71° (ENE) 1,234 2.8 -14.0°
Drops below altitude 10° 21:18:33 10° 5° (N) 2,446 5.1 -14.8°
Sets 21:21:02 0° 358° (N) 3,376 6.0 -15.2°
